Time,TemperatureF,DewpointF,PressureIn,WindDirection,WindDirectionDegrees,WindSpeedMPH,WindSpeedGustMPH,Humidity,HourlyPrecipIn,Conditions,Clouds,dailyrainin,SoftwareType,DateUTC
2013-03-10 00:00:00,29.0,28.5,30.05,NW,315,4.0,8.0,98,0.00,,,0.00,Weather View 32 v70,2013-03-10 07:00:00,
2013-03-10 00:05:00,29.0,28.5,30.05,West,270,8.0,8.0,98,0.00,,,0.00,Weather View 32 v70,2013-03-10 07:05:00,
2013-03-10 00:10:00,29.0,28.5,30.05,NW,315,4.0,8.0,98,0.00,,,0.00,Weather View 32 v70,2013-03-10 07:10:00,
2013-03-10 00:15:00,29.0,28.5,30.05,West,270,5.0,8.0,98,0.00,,,0.00,Weather View 32 v70,2013-03-10 07:15:00,
2013-03-10 00:20:00,29.0,28.5,30.05,WNW,292,4.0,9.0,98,0.00,,,0.00,Weather View 32 v70,2013-03-10 07:20:00,
2013-03-10 00:25:00,28.0,27.8,30.05,WNW,292,4.0,9.0,99,0.00,,,0.00,Weather View 32 v70,2013-03-10 07:25:00,
2013-03-10 00:30:00,29.0,28.8,30.05,West,270,4.0,9.0,99,0.00,,,0.00,Weather View 32 v70,2013-03-10 07:30:00,
2013-03-10 00:35:00,28.0,28.0,30.05,West,270,3.0,9.0,100,0.00,,,0.00,Weather View 32 v70,2013-03-10 07:35:00,
2013-03-10 00:40:00,28.0,28.0,30.05,West,270,5.0,9.0,100,0.00,,,0.00,Weather View 32 v70,2013-03-10 07:40:00,
2013-03-10 00:45:00,28.0,28.0,30.05,West,270,4.0,9.0,100,0.00,,,0.00,Weather View 32 v70,2013-03-10 07:45:00,
2013-03-10 00:50:00,28.0,28.0,30.06,West,270,5.0,9.0,100,0.00,,,0.00,Weather View 32 v70,2013-03-10 07:50:00,
2013-03-10 00:55:00,28.0,28.0,30.06,NW,315,4.0,9.0,100,0.00,,,0.00,Weather View 32 v70,2013-03-10 07:55:00,
2013-03-10 01:00:00,28.0,28.0,30.06,NNE,22,6.0,9.0,100,0.00,,,0.00,Weather View 32 v70,2013-03-10 08:00:00,
2013-03-10 01:05:00,28.0,28.0,30.06,NE,45,6.0,9.0,100,0.00,,,0.00,Weather View 32 v70,2013-03-10 08:05:00,
2013-03-10 01:10:00,29.0,29.0,30.07,NNE,22,4.0,9.0,100,0.00,,,0.00,Weather View 32 v70,2013-03-10 08:10:00,
2013-03-10 01:15:00,28.0,28.0,30.07,NNE,22,3.0,9.0,100,0.00,,,0.00,Weather View 32 v70,2013-03-10 08:15:00,
2013-03-10 01:20:00,28.0,28.0,30.07,North,360,2.0,9.0,100,0.00,,,0.00,Weather View 32 v70,2013-03-10 08:20:00,
2013-03-10 01:25:00,28.0,28.0,30.07,East,90,4.0,9.0,100,0.00,,,0.00,Weather View 32 v70,2013-03-10 08:25:00,
2013-03-10 01:30:00,28.0,28.0,30.08,East,90,4.0,9.0,100,0.00,,,0.00,Weather View 32 v70,2013-03-10 08:30:00,
2013-03-10 01:35:00,27.0,27.0,30.08,East,90,1.0,9.0,100,0.00,,,0.00,Weather View 32 v70,2013-03-10 08:35:00,
2013-03-10 01:40:00,27.0,27.0,30.07,East,90,2.0,9.0,100,0.00,,,0.00,Weather View 32 v70,2013-03-10 08:40:00,
2013-03-10 01:45:00,27.0,27.0,30.07,East,90,1.0,9.0,100,0.00,,,0.00,Weather View 32 v70,2013-03-10 08:45:00,
2013-03-10 01:50:00,27.0,27.0,30.08,East,90,0.0,7.0,100,0.00,,,0.00,Weather View 32 v70,2013-03-10 08:50:00,
2013-03-10 01:55:00,26.0,26.0,30.08,East,90,0.0,7.0,100,0.00,,,0.00,Weather View 32 v70,2013-03-10 08:55:00,
2013-03-10 03:00:00,26.0,26.0,30.08,East,90,0.0,0.0,100,0.00,,,0.00,Weather View 32 v70,2013-03-10 09:00:00,
2013-03-10 03:05:00,26.0,26.0,30.08,East,90,0.0,1.0,100,0.00,,,0.00,Weather View 32 v70,2013-03-10 09:05:00,
2013-03-10 03:10:00,26.0,26.0,30.07,East,90,0.0,2.0,100,0.00,,,0.00,Weather View 32 v70,2013-03-10 09:10:00,
2013-03-10 03:15:00,26.0,26.0,30.07,East,90,0.0,2.0,100,0.00,,,0.00,Weather View 32 v70,2013-03-10 09:15:00,
2013-03-10 03:20:00,26.0,26.0,30.07,East,90,0.0,2.0,100,0.00,,,0.00,Weather View 32 v70,2013-03-10 09:20:00,
2013-03-10 03:25:00,25.0,25.0,30.07,East,90,0.0,2.0,100,0.00,,,0.00,Weather View 32 v70,2013-03-10 09:25:00,
2013-03-10 03:30:00,26.0,26.0,30.07,NNW,337,3.0,4.0,100,0.00,,,0.00,Weather View 32 v70,2013-03-10 09:30:00,
2013-03-10 03:35:00,25.0,25.0,30.07,NNW,337,3.0,4.0,100,0.00,,,0.00,Weather View 32 v70,2013-03-10 09:35:00,
2013-03-10 03:40:00,25.0,25.0,30.07,NNW,337,1.0,4.0,100,0.00,,,0.00,Weather View 32 v70,2013-03-10 09:40:00,
2013-03-10 03:45:00,25.0,25.0,30.07,North,360,1.0,4.0,100,0.00,,,0.00,Weather View 32 v70,2013-03-10 09:45:00,
2013-03-10 03:50:00,25.0,25.0,30.07,North,360,3.0,4.0,100,0.00,,,0.00,Weather View 32 v70,2013-03-10 09:50:00,
2013-03-10 03:55:00,25.0,25.0,30.07,North,360,3.0,4.0,100,0.00,,,0.00,Weather View 32 v70,2013-03-10 09:55:00,
2013-03-10 04:00:00,25.0,25.0,30.07,North,360,1.0,5.0,100,0.00,,,0.00,Weather View 32 v70,2013-03-10 10:00:00,
2013-03-10 18:08:00,49.0,14.6,30.09,NW,315,6.0,11.0,25,0.00,,,0.00,Weather View 32 v70,2013-03-11 00:08:00,
2013-03-10 18:13:00,49.0,15.5,30.10,West,270,9.0,13.0,26,0.00,,,0.00,Weather View 32 v70,2013-03-11 00:13:00,
2013-03-10 18:18:00,49.0,15.5,30.10,West,270,5.0,16.0,26,0.00,,,0.00,Weather View 32 v70,2013-03-11 00:18:00,
2013-03-10 18:23:00,49.0,15.5,30.09,West,270,7.0,16.0,26,0.00,,,0.00,Weather View 32 v70,2013-03-11 00:23:00,
2013-03-10 18:28:00,48.0,14.7,30.09,West,270,10.0,16.0,26,0.00,,,0.00,Weather View 32 v70,2013-03-11 00:28:00,
2013-03-10 18:33:00,48.0,15.6,30.10,West,270,8.0,16.0,27,0.00,,,0.00,Weather View 32 v70,2013-03-11 00:33:00,
2013-03-10 18:38:00,48.0,15.6,30.10,West,270,5.0,16.0,27,0.00,,,0.00,Weather View 32 v70,2013-03-11 00:38:00,
2013-03-10 18:43:00,48.0,15.6,30.10,West,270,7.0,16.0,27,0.00,,,0.00,Weather View 32 v70,2013-03-11 00:43:00,
2013-03-10 18:48:00,47.0,14.7,30.10,WNW,292,8.0,16.0,27,0.00,,,0.00,Weather View 32 v70,2013-03-11 00:48:00,
2013-03-10 18:53:00,47.0,15.5,30.10,West,270,8.0,16.0,28,0.00,,,0.00,Weather View 32 v70,2013-03-11 00:53:00,
2013-03-10 18:58:00,47.0,15.5,30.10,West,270,5.0,16.0,28,0.00,,,0.00,Weather View 32 v70,2013-03-11 00:58:00,
2013-03-10 19:03:00,47.0,16.3,30.10,West,270,9.0,16.0,29,0.00,,,0.00,Weather View 32 v70,2013-03-11 01:03:00,
2013-03-10 19:08:00,46.0,16.3,30.10,WSW,247,5.0,16.0,30,0.00,,,0.00,Weather View 32 v70,2013-03-11 01:08:00,
2013-03-10 19:13:00,46.0,16.3,30.11,West,270,6.0,16.0,30,0.00,,,0.00,Weather View 32 v70,2013-03-11 01:13:00,
2013-03-10 19:18:00,45.0,16.9,30.11,West,270,4.0,16.0,32,0.00,,,0.00,Weather View 32 v70,2013-03-11 01:18:00,
2013-03-10 19:23:00,45.0,16.9,30.11,NW,315,5.0,16.0,32,0.00,,,0.00,Weather View 32 v70,2013-03-11 01:23:00,
2013-03-10 19:28:00,44.0,16.0,30.11,WNW,292,9.0,16.0,32,0.00,,,0.00,Weather View 32 v70,2013-03-11 01:28:00,
2013-03-10 19:33:00,44.0,16.7,30.11,NW,315,10.0,16.0,33,0.00,,,0.00,Weather View 32 v70,2013-03-11 01:33:00,
2013-03-10 19:38:00,43.0,15.8,30.11,NW,315,7.0,14.0,33,0.00,,,0.00,Weather View 32 v70,2013-03-11 01:38:00,
2013-03-10 19:43:00,43.0,15.1,30.12,West,270,8.0,14.0,32,0.00,,,0.00,Weather View 32 v70,2013-03-11 01:43:00,
2013-03-10 19:48:00,43.0,15.8,30.12,NW,315,7.0,14.0,33,0.00,,,0.00,Weather View 32 v70,2013-03-11 01:48:00,
2013-03-10 19:53:00,43.0,16.5,30.13,West,270,7.0,13.0,34,0.00,,,0.00,Weather View 32 v70,2013-03-11 01:53:00,
2013-03-10 19:58:00,42.0,15.6,30.13,NW,315,7.0,16.0,34,0.00,,,0.00,Weather View 32 v70,2013-03-11 01:58:00,
2013-03-10 20:03:00,42.0,14.9,30.14,West,270,6.0,16.0,33,0.00,,,0.00,Weather View 32 v70,2013-03-11 02:03:00,
2013-03-10 20:08:00,42.0,15.6,30.14,WNW,292,3.0,16.0,34,0.00,,,0.00,Weather View 32 v70,2013-03-11 02:08:00,
2013-03-10 20:13:00,42.0,16.3,30.14,West,270,5.0,16.0,35,0.00,,,0.00,Weather View 32 v70,2013-03-11 02:13:00,
2013-03-10 20:18:00,41.0,15.4,30.14,NW,315,8.0,16.0,35,0.00,,,0.00,Weather View 32 v70,2013-03-11 02:18:00,
2013-03-10 20:24:00,41.0,14.7,30.14,NW,315,9.0,16.0,34,0.00,,,0.00,Weather View 32 v70,2013-03-11 02:24:00,
2013-03-10 20:29:00,41.0,15.4,30.14,NW,315,6.0,16.0,35,0.00,,,0.00,Weather View 32 v70,2013-03-11 02:29:00,
2013-03-10 20:34:00,41.0,15.4,30.15,West,270,7.0,16.0,35,0.00,,,0.00,Weather View 32 v70,2013-03-11 02:34:00,
2013-03-10 20:39:00,41.0,16.1,30.15,WNW,292,4.0,16.0,36,0.00,,,0.00,Weather View 32 v70,2013-03-11 02:39:00,
2013-03-10 20:44:00,40.0,15.2,30.15,West,270,4.0,16.0,36,0.00,,,0.00,Weather View 32 v70,2013-03-11 02:44:00,
2013-03-10 20:49:00,40.0,15.8,30.15,West,270,3.0,16.0,37,0.00,,,0.00,Weather View 32 v70,2013-03-11 02:49:00,
2013-03-10 20:54:00,39.0,15.5,30.15,West,270,3.0,16.0,38,0.00,,,0.00,Weather View 32 v70,2013-03-11 02:54:00,
2013-03-10 20:59:00,39.0,16.1,30.15,West,270,5.0,15.0,39,0.00,,,0.00,Weather View 32 v70,2013-03-11 02:59:00,
2013-03-10 21:04:00,38.0,16.4,30.15,West,270,7.0,15.0,41,0.00,,,0.00,Weather View 32 v70,2013-03-11 03:04:00,
2013-03-10 21:09:00,38.0,16.4,30.15,West,270,7.0,15.0,41,0.00,,,0.00,Weather View 32 v70,2013-03-11 03:09:00,
2013-03-10 21:14:00,38.0,16.4,30.16,WSW,247,5.0,15.0,41,0.00,,,0.00,Weather View 32 v70,2013-03-11 03:14:00,
2013-03-10 21:19:00,38.0,16.9,30.16,West,270,3.0,15.0,42,0.00,,,0.00,Weather View 32 v70,2013-03-11 03:19:00,
2013-03-10 21:24:00,37.0,16.0,30.16,West,270,2.0,15.0,42,0.00,,,0.00,Weather View 32 v70,2013-03-11 03:24:00,
2013-03-10 21:29:00,37.0,17.1,30.16,West,270,3.0,15.0,44,0.00,,,0.00,Weather View 32 v70,2013-03-11 03:29:00,
2013-03-10 21:34:00,37.0,17.1,30.16,West,270,3.0,10.0,44,0.00,,,0.00,Weather View 32 v70,2013-03-11 03:34:00,
2013-03-10 21:39:00,36.0,16.2,30.16,West,270,3.0,10.0,44,0.00,,,0.00,Weather View 32 v70,2013-03-11 03:39:00,
2013-03-10 21:44:00,36.0,16.7,30.16,West,270,4.0,10.0,45,0.00,,,0.00,Weather View 32 v70,2013-03-11 03:44:00,
2013-03-10 21:49:00,36.0,17.2,30.16,West,270,3.0,10.0,46,0.00,,,0.00,Weather View 32 v70,2013-03-11 03:49:00,
2013-03-10 21:54:00,35.0,17.3,30.16,WNW,292,5.0,10.0,48,0.00,,,0.00,Weather View 32 v70,2013-03-11 03:54:00,
2013-03-10 21:59:00,35.0,16.8,30.16,West,270,5.0,10.0,47,0.00,,,0.00,Weather View 32 v70,2013-03-11 03:59:00,
2013-03-10 22:00:00,35.0,16.8,30.16,WNW,292,4.0,10.0,47,0.00,,,0.00,Weather View 32 v70,2013-03-11 04:00:00,
2013-03-10 22:05:00,35.0,16.8,30.16,West,270,4.0,10.0,47,0.00,,,0.00,Weather View 32 v70,2013-03-11 04:05:00,
2013-03-10 22:10:00,35.0,17.3,30.16,West,270,4.0,10.0,48,0.00,,,0.00,Weather View 32 v70,2013-03-11 04:10:00,
2013-03-10 22:15:00,35.0,18.7,30.16,West,270,4.0,7.0,51,0.00,,,0.00,Weather View 32 v70,2013-03-11 04:15:00,
2013-03-10 22:20:00,35.0,18.7,30.18,West,270,4.0,8.0,51,0.00,,,0.00,Weather View 32 v70,2013-03-11 04:20:00,
2013-03-10 22:25:00,34.0,17.8,30.18,West,270,4.0,9.0,51,0.00,,,0.00,Weather View 32 v70,2013-03-11 04:25:00,
2013-03-10 22:30:00,34.0,17.8,30.18,WNW,292,6.0,9.0,51,0.00,,,0.00,Weather View 32 v70,2013-03-11 04:30:00,
2013-03-10 22:35:00,34.0,18.2,30.18,WNW,292,6.0,11.0,52,0.01,,,0.00,Weather View 32 v70,2013-03-11 04:35:00,
2013-03-10 22:40:00,34.0,17.8,30.19,West,270,5.0,11.0,51,0.00,,,0.00,Weather View 32 v70,2013-03-11 04:40:00,
2013-03-10 22:45:00,34.0,17.8,30.19,NW,315,7.0,11.0,51,0.00,,,0.00,Weather View 32 v70,2013-03-11 04:45:00,
2013-03-10 22:50:00,34.0,17.8,30.19,West,270,4.0,11.0,51,0.00,,,0.00,Weather View 32 v70,2013-03-11 04:50:00,
2013-03-10 22:55:00,34.0,17.8,30.19,West,270,4.0,11.0,51,0.00,,,0.00,Weather View 32 v70,2013-03-11 04:55:00,
2013-03-10 23:00:00,34.0,18.2,30.19,West,270,6.0,11.0,52,0.00,,,0.00,Weather View 32 v70,2013-03-11 05:00:00,
2013-03-10 23:06:00,33.0,17.3,30.19,West,270,5.0,11.0,52,0.00,,,0.00,Weather View 32 v70,2013-03-11 05:06:00,
2013-03-10 23:11:00,33.0,17.3,30.19,West,270,4.0,11.0,52,0.00,,,0.00,Weather View 32 v70,2013-03-11 05:11:00,
2013-03-10 23:16:00,33.0,16.8,30.19,West,270,6.0,11.0,51,0.00,,,0.00,Weather View 32 v70,2013-03-11 05:16:00,
2013-03-10 23:21:00,33.0,16.8,30.19,West,270,4.0,11.0,51,0.00,,,0.00,Weather View 32 v70,2013-03-11 05:21:00,
2013-03-10 23:26:00,33.0,17.3,30.19,West,270,5.0,11.0,52,0.00,,,0.00,Weather View 32 v70,2013-03-11 05:26:00,
2013-03-10 23:32:00,33.0,18.6,30.20,WNW,292,7.0,11.0,55,0.00,,,0.00,Weather View 32 v70,2013-03-11 05:32:00,
2013-03-10 23:37:00,33.0,18.2,30.20,WNW,292,5.0,10.0,54,0.00,,,0.00,Weather View 32 v70,2013-03-11 05:37:00,
2013-03-10 23:42:00,33.0,18.2,30.20,West,270,5.0,10.0,54,0.00,,,0.00,Weather View 32 v70,2013-03-11 05:42:00,
2013-03-10 23:47:00,33.0,18.2,30.20,WNW,292,5.0,10.0,54,0.00,,,0.00,Weather View 32 v70,2013-03-11 05:47:00,
2013-03-10 23:52:00,32.0,17.2,30.20,West,270,7.0,10.0,54,0.00,,,0.00,Weather View 32 v70,2013-03-11 05:52:00,
2013-03-10 23:58:00,32.0,17.6,30.20,West,270,5.0,10.0,55,0.00,,,0.00,Weather View 32 v70,2013-03-11 05:58:00,